Погода в Нижнеудинске

Погода в Нижнеудинске : погода сейчас, прогноз погоды и архив. Всё, что Вы хотите узнать о погоде в Нижнеудинске!

Хотите узнать прогноз погоды в Нижнеудинске? Тогда Вам сюда: Погода в Нижнеудинске

Поиск расширенной информации на нашем сайте:

Другие новости

Новости СМИ2

Главная страница сайта

Новости сайта

03.07.2017

Напоминаем, что на нашем специализированном сайте Метеоцентр.Азия вы можете получить высокодетализированные автоматические прогнозы погоды по пунктам России, СНГ и мира в авиационном формате (включающие направление и скорость ветра, видимость, явления погоды, количество и форму облачности, нижнюю и верхнюю границу облачности).


Погода в Нижнеудинске - сегодня

Время (UTC), дата Ветер
(°,м/с) 
Видим.   Явления Облачность Т
(°С)
Тd
(°С)
f(%) Тe
(°С)
Pmin
(гПа)
dP
(гПа)
Po
(мм)
O2
(г/м3)
Тmin Tmax R s Состояние
почвы
12 19.06.18 120 (ЮВ) 20000 м    10/8 600 м кучево-дожд., верхняя 
[Cb cap|Ci sp]
+24.3 +15.1 56 +34  1001.4  -0.4  717  262    +26       
15 19.06.18 тихо ()   н/о    10/8 600 м кучево-дожд., верхняя 
[Cb cap|Ci sp]
+19.2 +15 77 +29  1001.7  -0.5  716  266           
18 19.06.18 тихо ()   н/о    10/9 600 м кучево-дожд., верхняя 
[Cb cap|Ci sp]
+17.3 +15.9 91 +29  1001.2  -0.7  716  268           
21 19.06.18 320 (СЗ) н/о    9/3 600 м кучево-дожд., средняя, верхняя 
[Cb cap|Ac trans|Ci fib]
+15.6 +14.9 96 +27  1001.2  -0.3  716  270           
00 20.06.18 130 (ЮВ) 20000 м    9/3 600 м кучево-дожд., средняя, верхняя 
[Cb cap|Ac trans|Ci fib]
+18.7 +15.3 81 +30  1001.1  0.4  716  267  +14.6        сухая 
03 20.06.18 360 (С) 20000 м    10/0 верхняя 
[Ci sp]
+26.5 +18 60 +42  1000  0.2  716  259           
06 20.06.18 330 (СЗ) 20000 м    10/4 600 м кучево-дожд., верхняя 
[Cb cap|Ci sp]
+28 +14.7 44 +37  999.9  716  259           
09 20.06.18 350 (С) н/о    н/о 
+27.6 +13.8 43 +35  999.9  0.1  716  259           
12 20.06.18 320 (СЗ) 1{12}  20000 м  в посл. час гроза  10/8 600 м кучево-дожд., верхняя 
[Cb cap|Ci fib]
+24.7 +16.8 61 +38  1002.6  2.1  718  261    +30       
15 20.06.18 100 (В) н/о    8/3 1000 м верхняя 
[Sc diur, vesp|Ci fib]
+17.5 +16.4 93 +31  1004.8  1.1  718  268           
18 20.06.18 тихо ()   н/о  дымка  4/0 верхняя 
[Ci fib]
+14 +13.9 99 +22  1006.3  0.8  719  273           
21 20.06.18 тихо ()   н/о  туман  3/0 верхняя 
[Ci fib]
+12.2 +12 99 +17  1007.4  0.6  719  275           
00 21.06.18 140 (ЮВ) 20000 м  {туман}  8/3 1000 м верхняя 
[Sc diur, vesp|Ci fib]
+15.4 +13.1 86 +24  1007.6  0.8  720  272  +11        сухая 
03 21.06.18 110 (В) 20000 м    4/3 1000 м верхняя 
[Cu med, cong|Ci fib]
+25.2 +14.1 50 +33  1004.9  -1  719  262           
06 21.06.18 200 (Ю) 20000 м    9/4 600 м кучево-дожд., верхняя 
[Cb calv|Ci fib]
+28.1 +10.6 34 +31  1003.4  -1.1  719  261           
12 21.06.18 340 (С) 20000 м  {гроза, ливн. осадки}  10/9 600 м кучево-дожд., верхняя 
[Cb cap|Ci fib]
+22.7 +14.1 58 +31  1005.2  0.2  719  265    +29     
15 21.06.18 110 (В) н/о    н/о 
+15.7 +14.7 94 +26  1005.2  719  271           
18 21.06.18 110 (В) н/о  слаб. ливневой дождь{гроза}  10/10 600 м кучево-дожд. 
[Cb cap]
+15.4 +14.7 96 +26  1008.9  0.5  721  272           
21 21.06.18 130 (ЮВ) н/о  {ливн. осадки}  10/10 600 м кучево-дожд. 
[Cb cap]
+14.7 +14.2 97 +24  1009.4  0.4  721  273           
00 22.06.18 тихо ()   20000 м  в посл. час ливневой дождь  10/10 600 м кучево-дожд. 
[Cb cap]
+15.3 +14.6 96 +24  1010.5  1.2  722  272  +14.3      влажная 
03 22.06.18 280 (З) 20000 м  {ливн. осадки}  8/6 600 м кучево-дожд., средняя, верхняя 
[Cb cap|Ac trans|Ci fib]
+20.4 +12 59 +25  1009.9  0.2  722  268           
06 22.06.18 330 (СЗ) 20000 м  {ливн. осадки}  6/4 600 м кучево-дожд., верхняя 
[Cb cap|Ci fib]
+24.4 +8.2 36 +24  1008.1  -1.1  722  265           
09 22.06.18 360 (С) 20000 м    6/4 1000 м верхняя 
[Cu med, cong|Ci fib]
+25.5 +6.8 30 +26  1007.1  -0.8  721  265           
12 22.06.18 020 (С) 20000 м    1/1 1000 м 
[Cu hum]
+23.5 +11.9 48 +28  1008  0.6  721  265    +26  0.0     
15 22.06.18 тихо ()   н/о    ясно 
+14.4 +12.6 89 +20  1010.8  1.2  722  274           
Время (UTC), дата Ветер
(°,м/с) 
Видим.   Явления Облачность Т
(°С)
Тd
(°С)
f(%) Тe
(°С)
Pmin
(гПа)
dP
(гПа)
Po
(мм)
O2
(г/м3)
Тmin Tmax R s Состояние
почвы

Для получения пояснительной информации подведите курсор к названию столбца.

ПОГОДА в Нижнеудинске - архив

Всё, что Вы хотите узнать о погоде в Нижнеудинске - удобно и подробно!

Выберите нужную дату (начиная с 1 января 2015* года) и нажмите кнопку "Найти".
Будут отображены архивные сводки погоды по пункту Нижнеудинск, начиная с указанной даты.


Отображать данные в формате CSV (для использования в таблицах Excel)


Внимание! Наш архив погоды предназначен исключительно для личного некоммерческого использования в познавательных целях. Если Вам необходимы официальные справки о состоянии погоды (для производственных, юридических, коммерческих и т.п. целей), обращайтесь в органы Росгидромета.

*Примечание: данная дата относится к архиву по метеостанциям СССР (Россия, СНГ, Балтия).
Архив по метеостанциям Зарубежной Европы и Азии (кроме Китая) хранится 10 дней, по другим регионам земного шара (Китай, Африка, Америка, Австралия, Океания) - 1 день.

Нижнеудинск - район местоположения метеостанции


Название, широта, долгота, высота метеостанции:
Нижнеудинск 54.9°ш. 99°д. 411 м над ур. моря [Российская Федерация]

Дополнительная информация

В oтличие oт бoльшинства пoгoдных сайтoв мы публикуем пoдрoбную метеoинфoрмацию в детальнoм прoфессиoнальнoм фoрмате.

Характеристики температуры и влажнoсти вoздуха измеряются на высoте 2 м в тени вдали oт зданий и деревьев.
Скoрoсть ветра измеряется на высoте 10 м (на урoвне рoста челoвека скoрoсть ветра ниже в 1.5-2 раза). Если метеoстанция нахoдится в гoрoде или в лесу, тo скoрoсть ветра занижена на 2-4 м/с пo сравнению с oткрытым местoм. Скoрoсть ветра над акватoриями крупных рек и oзёр, а также на вершинах хoлмoв на 2-5 м/с выше, чем в oбычных услoвиях.
Атмoсфернoе давление в разных тoчках местнoсти мoжет значительнo oтличаться oт давления на метеoстанции, в зависимoсти oт услoвий рельефа (при пoдъёме на 10 м давление пoнижается примернo на 1 мм рт.ст.).